Regional Weather Roundup
Issued by NWS San Angelo, TX

Home | Current Version | Previous Version | Text Only | Print | Product List | Glossary On
Versions: 1 2 3 4 5 6 7 8 9 10 11 12 13 14 15 16 17 18 19 20 21 22 23 24 25 26 27 28 29 30 31 32 33 34 35 36 37 38 39 40 41 42 43 44 45 46 47 48 49 50
000
ASUS44 KSJT 290510
RWRSJT
WEST CENTRAL TEXAS REGIONAL WEATHER ROUNDUP
NATIONAL WEATHER SERVICE SAN ANGELO TX
1100 PM CST SUN DEC 28 2014

NOTE: "FAIR" INDICATES FEW OR NO CLOUDS BELOW 12,000 FEET WITH NO
SIGNIFICANT WEATHER AND/OR OBSTRUCTIONS TO VISIBILITY.

TXZ049-054-064>066-071>073-076>078-098-099-113-114-127-128-139-140-
154-155-168>170-290600
...LOCATIONS ACROSS WEST CENTRAL TEXAS...

CITY           SKY/WX    TMP DP  RH WIND       PRES   REMARKS
SAN ANGELO     CLEAR     34  28  79 S7        30.09S WCI  28
ABILENE        CLEAR     38  27  64 S10       30.06F WCI  31
DYESS AFB      CLEAR     35  26  68 S9        30.05F WCI  28
JUNCTION       CLEAR     32  29  88 CALM      30.12S
SWEETWATER     CLEAR     44  26  50 SW15      30.07S WCI  37
BROWNWOOD      PTCLDY    36  25  64 CALM      30.12S
COLEMAN        CLEAR     38  29  70 S7        30.09F WCI  33
SONORA         CLEAR     39  32  75 CALM      30.14F
OZONA          FAIR      36  32  87 SW5       30.12S WCI  32
BRADY          CLEAR     37  27  65 SE6       30.09F WCI  33
$$

TEXAS PANHANDLE/OKLAHOMA PANHANDLE

CITY           SKY/WX    TMP DP  RH WIND       PRES   REMARKS
AMARILLO       PTCLDY    33  10  38 CALM      29.94R
BORGER         PTCLDY    29  11  47 NE6       29.95R WCI  23
CANADIAN       CLEAR     28  23  84 CALM      29.99R
DALHART        PTCLDY    27  17  66 NW7       29.95S WCI  19
DUMAS          PTCLDY    24  13  63 NW5       29.95R WCI  18
GUYMON         NOT AVBL
HEREFORD       MOCLDY    33  12  41 W6        29.95R WCI  27
PAMPA          PTCLDY    26  21  84 SE8       29.95R WCI  17
PERRYTON       CLEAR     24  19  83 SE7       29.97R WCI  16
$$

SOUTHERN PANHANDLE/SOUTH PLAINS/ROLLING PLAINS

CITY           SKY/WX    TMP DP  RH WIND       PRES   REMARKS
LUBBOCK        MOCLDY    39  26  59 W12       29.98S WCI  32
SNYDER         CLEAR     37  26  65 S7        30.04S WCI  31
CHILDRESS      PTCLDY    35  27  72 S12       29.98S WCI  27
SEMINOLE       PTCLDY    38  28  68 SW12      30.04R WCI  30
$$

PERMIAN BASIN

CITY           SKY/WX    TMP DP  RH WIND       PRES   REMARKS
MIDLAND        PTCLDY    41  29  62 SW7       30.05S WCI  36
ODESSA         PTCLDY    39  28  64 SW6       30.05F WCI  35
WINK           CLOUDY    43  27  53 SW6       30.05S WCI  39
$$

FAR WEST/SOUTHWEST MOUNTAINS/TRANS PECOS

CITY           SKY/WX    TMP DP  RH WIND       PRES   REMARKS
ALPINE         CLEAR     39  29  67 W10       30.16R WCI  32
DRYDEN           N/A     39  31  72 N6        30.08F WCI  35
EL PASO        MOCLDY    40  28  62 S5        30.11S WCI  37
FORT STOCKTON  PTCLDY    41  31  67 SW14      30.07S WCI  33
GUADALUPE PASS NOT AVBL
MARFA          CLEAR     27  21  80 CALM      30.15S
PECOS          PTCLDY    40  30  65 SW7       30.07S WCI  36
$$

DALLAS/FORT WORTH METROPLEX

CITY           SKY/WX    TMP DP  RH WIND       PRES   REMARKS
DFW AIRPORT    PTCLDY    34  24  67 S7        30.16R WCI  28
FTW MEACHAM    CLEAR     35  24  64 SE8       30.14S WCI  29
DAL-EXECUTIVE  CLEAR     37  25  61 SW5       30.15S WCI  33
GRAND PRAIRIE  CLEAR     36  28  74 S3        30.18S
ADDISON        CLEAR     36  27  69 S3        30.18R
MESQUITE       CLEAR     33  26  76 CALM      30.18S
LANCASTER      CLEAR     32  25  74 CALM      30.18S
$$

NORTH CENTRAL TEXAS

CITY           SKY/WX    TMP DP  RH WIND       PRES   REMARKS
SHRMAN/DENISON CLEAR     37  27  67 SE10      30.16S WCI  29
GAINESVILLE    CLEAR     33  24  70 SE3       30.16S
BRIDGEPORT     CLEAR     35  25  68 S5        30.15R WCI  31
DENTON         CLEAR     33  23  66 SE6       30.15S WCI  28
WAXAHACHIE     CLEAR     33  28  81 CALM      30.18R
GRANBURY       CLEAR     36  28  72 E5        30.15F WCI  32
$$

WESTERN NORTH TEXAS

CITY           SKY/WX    TMP DP  RH WIND       PRES   REMARKS
WICHITA FALLS  CLEAR     34  24  67 SE8       30.07F WCI  27
VERNON         CLEAR     38  25  60 SE10      30.05S WCI  30
BRECKENRIDGE   CLEAR     40  25  54 S8        30.09S WCI  34
COMANCHE       CLEAR     36  28  73 S8        30.11F WCI  30
$$

CENTRAL AND SOUTH CENTRAL TEXAS

CITY           SKY/WX    TMP DP  RH WIND       PRES   REMARKS
AUSTIN/BERGSTM CLEAR     31  30  96 W3        30.18S
WACO           CLEAR     30  27  88 SW3       30.17R
HILLSBORO      CLEAR     32  26  79 CALM      30.17R
TEMPLE         CLEAR     30  23  74 CALM      30.15S
KILLEEN-GRAY   CLEAR     33  27  80 S5        30.15S WCI  28
FORT HOOD      CLEAR     34  28  77 S2        30.15S
GEORGETOWN     CLEAR     30  28  93 CALM      30.16R
LAGO VISTA     FAIR      40  28  64 S3        30.15S
SAN MARCOS     NOT AVBL
NEW BRAUNFELS  CLEAR     34  32  92 NW6       30.17R WCI  29
RANDOLPH AFB   CLEAR     34  31  91 NW5       30.17S WCI  30
SAN ANTONIO    CLEAR     36  33  89 W5        30.17S WCI  32
STINSON        CLEAR     36  33  89 CALM      30.17S
PLEASANTON     NOT AVBL
LA GRANGE      CLEAR     35  34  98 CALM      30.16S
GIDDINGS       CLEAR     33  32  98 CALM      30.20F
$$

EAST TEXAS

CITY           SKY/WX    TMP DP  RH WIND       PRES   REMARKS
PARIS          CLEAR     34  27  75 CALM      30.17S
CLARKSVILLE    NOT AVBL
TYLER          CLEAR     34  31  88 CALM      30.15F
LONGVIEW       PTCLDY    39  36  89 CALM      30.15F
PALESTINE      CLEAR     32  32 100 CALM      30.17F FOG
NACOGDOCHES      N/A    N/A N/A N/A MISG        N/A
$$

TEXAS HILL COUNTRY AND EDWARDS PLATEAU

CITY           SKY/WX    TMP DP  RH WIND       PRES   REMARKS
LLANO          CLEAR     32  28  86 CALM      30.18S
HORSESHOE BAY  FAIR      31  29  93 CALM      30.15F
KERRVILLE      CLEAR     31  29  92 CALM      30.15S
FREDERICKSBRG  CLEAR     31  28  88 CALM      30.13S
ROCKSPRINGS    CLEAR     36  32  87 SE5       30.13F WCI  32
HONDO          CLEAR     32  30  92 N7        30.19S WCI  26
UVALDE         CLEAR     35  34  96 NE6       30.17F WCI  30
DEL RIO        CLEAR     43  31  62 E6        30.13F WCI  39
$$

SOUTHEAST TEXAS

CITY           SKY/WX    TMP DP  RH WIND       PRES   REMARKS
COLLEGE STN    CLEAR     36  34  92 CALM      30.17S
CALDWELL       CLEAR     32  32 100 CALM      30.20F
CROCKETT       CLOUDY    41  41 100 E3        30.19F
BRENHAM        CLEAR     37  36  96 CALM      30.19R
HUNTSVILLE     CLOUDY    39  38  96 E5        30.16S WCI  36
CONROE         CLOUDY    40  38  93 CALM      30.17F
HOUSTON BUSH   CLOUDY    42  39  89 CALM      30.17F
HOUSTON HOBBY  CLOUDY    43  40  89 NW6       30.17F WCI  39
PERLAND        CLOUDY    44  41  89 VRB6      30.19S
WHARTON        CLOUDY    41  38  90 N5        30.19F WCI  38
$$

THE UPPER TEXAS COAST

CITY           SKY/WX    TMP DP  RH WIND       PRES   REMARKS
ORANGE         CLOUDY    47  46  97 N3        30.16F
PORT ARTHUR    CLOUDY    47  46  97 N6        30.14F
GALVESTON      LGT RAIN  45  44  97 NW8       30.17S
ANGLETON       CLOUDY    41  41 100 NW6       30.18S WCI  37
BAY CITY         N/A     42  42  98 CALM      30.18F
$$

TEXAS COASTAL BEND, RIO GRANDE PLAINS DEEP SOUTH TEXAS

CITY           SKY/WX    TMP DP  RH WIND       PRES   REMARKS
VICTORIA       CLOUDY    42  39  89 CALM      30.19F
BEEVILLE       FAIR      39  38  96 CALM      30.19S
ROCKPORT       CLOUDY    45  38  76 N5        30.19F
PORT ARANSAS   CLOUDY    44  41  90 NE10      30.19F WCI  39
PORT LAVACA    CLOUDY    42  40  92 CALM      30.19F
CORPUS CHRISTI PTCLDY    43  38  82 CALM      30.20S
KINGSVILLE NAS CLEAR     41  40  96 S3        30.22R
COTULLA        CLEAR    N/A N/A N/A S6        30.19R
LAREDO         NOT AVBL
BROWNSVILLE    CLOUDY    48  45  89 NW10      30.21F
PORT ISABEL    CLOUDY    49  45  86 NW8       30.20S
HEBBRONVILLE   CLOUDY    43  41  92 S5        30.20F
MCALLEN        CLEAR     44  42  93 CALM      30.22F
WESLACO        CLEAR     43  41  93 CALM      30.22F FOG
FALFURRIAS     CLOUDY    45  41  86 CALM      30.22S
EDINBURG       CLEAR     44  41  90 CALM      30.23S
$$



USA.gov is the U.S. government's official web portal to all federal, state and local government web resources and services.